Weather History for KCEW - October, 2012

Change the Weather History Date:

Wednesday, October 10, 2012

  Actual Average Record
Temperature  
Mean Temperature 68 °F -  
Max Temperature 82 °F 80 °F 92 °F (1981)
Min Temperature 53 °F 56 °F 39 °F (2000)
Cooling Degree Days 2    
Growing Degree Days 18 (Base 50)    
Moisture  
Dew Point 56 °F    
Average Humidity 84    
Maximum Humidity 100    
Minimum Humidity 45    
Precipitation  
Precipitation 0.00 in - - ()
Sea Level Pressure  
Sea Level Pressure 30.13 in    
Wind  
Wind Speed 1 mph (North)    
Max Wind Speed 9 mph    
Max Gust Speed -    
Visibility 5 miles    
Events Fog    
Averages and records for this station are not official NWS values.
T = Trace of Precipitation, MM = Missing Value Source: NWS Daily Summary

Daily Weather History Graph

Daily Weather History Graph

Search for Another Location

Airport or City:

Trip Planner

Search our weather history database for the weather conditions in past years. The results will help you decide how hot, cold, wet, or windy it might be!

Date:

Astronomy

Oct. 10, 2012 Rise Set
Actual Time 6:45 AM CDT 6:19 PM CDT
Civil Twilight 6:21 AM CDT 6:43 PM CDT
Nautical Twilight 5:53 AM CDT 7:11 PM CDT
Astronomical Twilight 5:25 AM CDT 7:39 PM CDT
Moon 1:41 AM CDT (10/10) 3:04 PM CDT (10/10)
Length of Visible Light 12h 22m
Length of Day
11h 34m
Waning Crescent, 27% of the Moon is Illuminated
Oct 10
Waning Crescent
Oct 15
New
Oct 21
First Quarter
Oct 29
Full
Nov 6
Last Quarter

Hourly Weather History & Observations

Time (CDT) Temp. Heat Index Dew Point Humidity Pressure Visibility Wind Dir Wind Speed Gust Speed Precip Events Conditions
12:53 AM 57.0 °F - 54.0 °F 89% 30.09 in 6.0 mi Calm Calm - N/A   Clear
1:31 AM 55.4 °F - 53.6 °F 94% 30.09 in 6.0 mi Calm Calm - N/A   Partly Cloudy
1:53 AM 55.0 °F - 53.1 °F 93% 30.09 in 6.0 mi Calm Calm - N/A   Mostly Cloudy
2:53 AM 54.0 °F - 53.1 °F 97% 30.09 in 4.0 mi Calm Calm - N/A   Mostly Cloudy
3:34 AM 53.6 °F - 51.8 °F 94% 30.11 in 7.0 mi Calm Calm - N/A   Scattered Clouds
3:53 AM 54.0 °F - 52.0 °F 93% 30.10 in 5.0 mi Calm Calm - N/A   Clear
4:18 AM 53.6 °F - 51.8 °F 94% 30.11 in 6.0 mi Calm Calm - N/A   Scattered Clouds
4:26 AM 53.6 °F - 51.8 °F 94% 30.11 in 5.0 mi Calm Calm - N/A   Mostly Cloudy
4:29 AM 53.6 °F - 51.8 °F 94% 30.11 in 1.8 mi Calm Calm - N/A   Mostly Cloudy
4:34 AM 53.6 °F - 51.8 °F 94% 30.11 in 0.8 mi Calm Calm - N/A   Mist
4:43 AM 53.6 °F - 51.8 °F 94% 30.12 in 0.5 mi Calm Calm - N/A Fog Fog
4:53 AM 53.1 °F - 52.0 °F 96% 30.12 in 0.2 mi Calm Calm - N/A Fog Fog
5:19 AM 53.6 °F - 51.8 °F 94% 30.12 in 0.5 mi Calm Calm - N/A Fog Fog
5:24 AM 53.6 °F - 51.8 °F 94% 30.12 in 1.0 mi Calm Calm - N/A   Mist
5:31 AM 53.6 °F - 51.8 °F 94% 30.13 in 0.5 mi Calm Calm - N/A Fog Fog
5:40 AM 53.6 °F - 53.6 °F 100% 30.13 in 0.2 mi Calm Calm - N/A Fog Fog
5:53 AM 54.0 °F - 53.1 °F 97% 30.13 in 0.2 mi Calm Calm - N/A Fog Fog
6:09 AM 53.6 °F - 53.6 °F 100% 30.14 in 0.2 mi Calm Calm - N/A Fog Fog
6:53 AM 55.9 °F - 54.0 °F 93% 30.15 in 0.2 mi Calm Calm - N/A Fog Fog
7:25 AM 55.4 °F - 55.4 °F 100% 30.16 in 1.0 mi Calm Calm - N/A   Overcast
7:37 AM 55.4 °F - 55.4 °F 100% 30.16 in 0.8 mi Calm Calm - N/A   Overcast
7:53 AM 57.0 °F - 55.0 °F 93% 30.17 in 0.8 mi Calm Calm - N/A   Overcast
8:01 AM 57.2 °F - 55.4 °F 94% 30.17 in 0.2 mi Calm Calm - N/A Fog Fog
8:53 AM 60.1 °F - 59.0 °F 96% 30.17 in 1.0 mi Calm Calm - N/A   Overcast
9:03 AM 60.8 °F - 59.0 °F 94% 30.17 in 3.0 mi Calm Calm - N/A   Mostly Cloudy
9:18 AM 64.4 °F - 60.8 °F 88% 30.18 in 9.0 mi Calm Calm - N/A   Scattered Clouds
9:53 AM 70.0 °F - 61.0 °F 73% 30.17 in 10.0 mi NE 3.5 mph - N/A   Clear
10:53 AM 75.0 °F - 55.9 °F 51% 30.17 in 10.0 mi NNW 6.9 mph - N/A   Clear
11:53 AM 78.1 °F - 57.0 °F 48% 30.16 in 10.0 mi NNW 6.9 mph - N/A   Clear
12:53 PM 80.1 °F 80.7 °F 59.0 °F 48% 30.14 in 10.0 mi Variable 4.6 mph - N/A   Clear
1:53 PM 81.0 °F 81.1 °F 57.9 °F 45% 30.11 in 10.0 mi Variable 6.9 mph - N/A   Clear
2:53 PM 82.0 °F 82.1 °F 59.0 °F 45% 30.10 in 10.0 mi North 8.1 mph - N/A   Clear
3:53 PM 82.9 °F 83.2 °F 60.1 °F 46% 30.09 in 10.0 mi NNW 9.2 mph - N/A   Clear
4:53 PM 80.1 °F 80.9 °F 60.1 °F 50% 30.10 in 10.0 mi North 6.9 mph - N/A   Clear
5:53 PM 78.1 °F - 61.0 °F 56% 30.10 in 10.0 mi Calm Calm - N/A   Clear
6:53 PM 72.0 °F - 62.1 °F 71% 30.12 in 10.0 mi Calm Calm - N/A   Clear
7:53 PM 66.0 °F - 62.1 °F 87% 30.13 in 10.0 mi Calm Calm - N/A   Clear
8:53 PM 64.0 °F - 60.1 °F 87% 30.16 in 10.0 mi Calm Calm - N/A   Clear
9:53 PM 62.1 °F - 59.0 °F 90% 30.17 in 8.0 mi Calm Calm - N/A   Clear
10:53 PM 60.1 °F - 57.9 °F 93% 30.17 in 8.0 mi Calm Calm - N/A   Clear
11:53 PM 59.0 °F - 57.0 °F 93% 30.16 in 7.0 mi Calm Calm - N/A   Clear